Location: Riverton
(43.0250°N, 108.3790°W)
Time: 17:44:09
(UTC-06:00)

Daily predictions for brighter satellites

Satellite Brightness Start Highest point End
(mag) Time Altitude Azimuth Time Altitude Azimuth Time Altitude Azimuth
Cosmos 1603 4.0 21:15:09 10° SSW 21:20:45 74° WNW 21:26:22 10° NNE
Cosmos 1812 Rocket 3.6 21:18:53 10° N 21:23:19 77° E 21:27:44 10° SSE
Lacrosse 4 Rocket 1.9 21:20:32 10° S 21:24:12 35° ESE 21:27:57 10° NE
ALOS 3.4 21:20:48 10° S 21:25:15 44° W 21:29:43 10° NNW
Cosmos 1943 Rocket 3.5 21:22:00 10° N 21:26:41 27° NE 21:31:21 10° ESE
ISS -2.1 21:26:49 10° WSW 21:29:59 47° NNW 21:33:10 10° NE
Cosmos 1992 Rocket 4.0 21:29:25 10° NNW 21:34:41 86° ENE 21:39:54 10° SSE
Atlas Centaur 2 3.7 21:30:19 10° WSW 21:36:11 30° S 21:42:49 10° ESE
H-2A R/B 2.3 21:32:07 10° S 21:36:24 75° WSW 21:40:49 10° NNW
SeaSat 1 3.1 21:32:44 10° SE 21:37:22 42° NE 21:42:01 10° NNW
Cosmos 1943 3.2 21:34:18 10° SSW 21:39:55 69° ESE 21:45:36 10° NNE
deb Chang Zheng 4 3.9 21:38:28 10° N 21:42:52 74° WNW 21:47:12 10° SSW
Tsikada Rocket 4.3 21:37:13 10° SSW 21:43:38 76° W 21:50:01 10° N
Lacrosse 5 rocket 4.3 21:48:20 10° NW 21:50:12 13° N 21:52:06 10° NNE
Cosmos 1953 4.2 21:48:09 10° NNE 21:50:45 17° ENE 21:52:53 12° ESE
PSLV R/B 3.4 21:47:35 10° W 21:51:04 61° S 21:54:07 13° ESE
USA 81 4.1 21:47:19 10° N 21:52:36 68° E 21:57:51 10° SSE
CZ-4B R/B 3.9 21:48:35 10° NNE 21:53:31 45° E 21:58:30 10° S
Cosmos 1939 Rocket 3.4 21:49:35 10° S 21:53:42 63° W 21:57:49 10° NNW
Cosmos 1346 Rocket 2.8 21:55:39 10° S 21:59:29 60° E 22:03:24 10° NNE
Terra 3.6 21:57:55 11° ESE 22:00:58 19° ENE 22:04:18 10° NNE
CZ-4 SHROUD 3.5 21:58:17 11° S 22:01:13 65° WSW 22:04:22 10° NNW
PSLV R/B 3.4 21:59:04 12° S 22:01:50 69° WSW 22:04:57 10° NNW
Cosmos-2242 4.2 21:58:31 10° NNE 22:02:22 29° ENE 22:04:55 17° ESE
Cosmos 1842 4.3 22:00:59 17° SE 22:03:04 27° E 22:06:24 10° NNE
Cosmos 1190 Rocket 4.0 21:58:04 10° SSW 22:03:23 89° ESE 22:08:44 10° NNE
USA 245 4.2 21:58:45 14° SSE 22:03:31 57° ENE 22:08:06 10° N
ARGOS 3.6 21:59:31 15° SE 22:03:46 47° ENE 22:08:58 10° N
SPOT 5 2.7 22:00:17 10° S 22:04:34 75° WSW 22:08:54 10° NNW
Cosmos 2142 Rocket 4.5 21:58:22 10° N 22:04:42 82° E 22:10:41 11° S
Cosmos 1953 Rocket 3.5 22:00:47 10° S 22:05:09 69° E 22:09:36 10° NNE
Cosmos 1140 Rocket 4.4 22:06:28 16° SSE 22:09:44 30° E 22:14:15 10° NE
ATLAS 3B R/B 3.0 22:02:21 10° SSW 22:10:05 90° SE 22:17:39 10° NE
MetOp-B 4.1 22:05:40 13° SSE 22:10:33 90° ENE 22:15:57 10° NNW
Cosmos 1634 Rocket 4.0 22:05:33 10° N 22:11:45 85° W 22:17:49 11° S
SL-8 R/B 4.1 22:09:56 10° WNW 22:14:43 60° NNE 22:19:03 13° E
Lacrosse 5 4.4 22:11:48 10° NW 22:15:07 17° N 22:18:25 10° NE
SL-23 DEB 4.4 22:08:24 10° SW 22:15:08 64° SE 22:19:03 10° ENE
H-2A R/B 3.1 22:14:20 17° ESE 22:17:20 30° ENE 22:21:46 10° N
Cosmos 489 Rocket 4.5 22:12:12 10° SSW 22:18:33 86° ESE 22:24:58 10° NNE
Meteor 1-21 4.3 22:14:17 10° S 22:19:59 67° E 22:25:47 10° NNE
YAOGAN 6 2.6 22:18:23 20° SSE 22:20:53 89° WSW 22:24:39 10° NNW
Cosmos 676 Rocket 4.0 22:15:36 10° SSW 22:20:55 77° ESE 22:26:16 10° NNE
Cosmos 2369 Rocket 2.9 22:16:09 10° NW 22:21:36 49° WSW 22:26:23 13° S
Cosmos 1607 4.5 22:16:52 10° S 22:22:31 36° ESE 22:28:08 10° NE
SPOT 1/Viking Rocket 3.5 22:22:33 18° SSE 22:26:27 90° WSW 22:31:38 10° NNW
Cosmos 1766 3.2 22:24:19 10° N 22:28:21 87° E 22:30:42 24° S
USA 234 3.4 22:24:29 16° ESE 22:29:50 70° NE 22:36:22 10° NW
Cosmos 2279 Rocket 4.0 22:23:56 10° N 22:30:13 79° E 22:34:50 19° SSE
Cosmos 1932 4.4 22:25:41 10° SSW 22:31:49 71° ESE 22:38:02 10° NE
SL-08 RB Rocket 3.7 22:29:35 24° SSE 22:32:14 69° ENE 22:36:44 10° N
NOAA 11 4.1 22:32:51 22° SSE 22:36:28 83° ENE 22:41:55 10° NNW
Cosmos 1758 Rocket 3.9 22:34:20 10° SSW 22:38:38 64° W 22:42:58 10° N
Cosmos 1758 3.6 22:35:44 10° N 22:39:48 55° E 22:41:25 32° SE
CARTOSAT-1 4.1 22:39:08 28° SE 22:40:57 43° ENE 22:45:04 10° N
SL-27 R/B 2.3 22:44:18 25° SSW 22:46:08 82° WNW 22:49:30 10° NNE
Cosmos 407 Rocket 4.5 22:42:08 10° SW 22:47:13 48° WNW 22:52:16 10° N
CZ-4C R/B 3.2 22:48:42 24° ESE 22:49:01 24° ESE 22:53:33 10° ENE
BREEZE-M DEB (TANK) 3.6 22:48:11 10° W 22:50:36 31° NNW 22:52:29 10° NE
Cosmos 1470 3.9 22:50:43 10° NNE 22:54:06 27° ENE 22:54:45 26° E
Cosmos 1805 3.2 22:50:42 10° N 22:54:39 71° E 22:55:51 42° SSE
DMSP B5D2-2 4.3 22:51:49 10° NNE 22:56:57 50° E 22:59:02 32° SSE
IGS 5A 3.7 22:56:22 38° SE 22:57:40 55° ENE 23:01:45 10° N
USA 238 DEB 3.7 22:50:45 10° SSW 22:57:51 82° ESE 23:04:57 10° NE
USA 238 3.7 22:50:51 10° SSW 22:57:57 82° ESE 23:05:02 10° NE
COSMOS 2487 3.3 22:58:54 35° E 22:58:54 35° E 23:02:00 10° NE
Lacrosse 4 Rocket 3.8 22:59:44 10° WSW 23:03:01 23° NW 23:06:21 10° N
ISS -0.4 23:04:34 10° NW 23:07:00 19° N 23:09:26 10° NE
COSMOS 2406 3.2 23:03:21 14° SSW 23:08:25 89° WNW 23:14:12 10° NNE
Cosmos 1842 Rocket 3.5 23:04:35 10° N 23:09:00 76° E 23:10:19 45° SSE
Cosmos 2084 4.1 23:05:03 10° NW 23:09:01 43° WSW 23:10:11 35° SSW
Cosmos 1943 Rocket 2.7 23:05:19 10° NW 23:10:39 49° WSW 23:13:25 27° SSW
CZ-4C R/B 4.1 23:11:59 30° SSW 23:13:34 46° W 23:17:24 10° NNW
SeaSat 1 3.9 23:12:25 18° SSW 23:14:59 28° WSW 23:19:12 10° NW
Cosmos 2082 Rocket 4.2 23:16:38 12° E 23:16:38 12° E 23:18:07 10° ENE
Cosmos 1656 Rocket 3.6 23:11:39 10° NNW 23:17:23 89° W 23:19:38 39° SSE
Cosmos 2208 Rocket 4.1 23:16:52 10° NNW 23:22:00 65° WSW 23:23:55 38° S
Landsat 7 4.4 23:20:31 31° SSW 23:22:29 51° W 23:27:09 10° NNW
Atlas Centaur 2 4.0 23:19:07 10° WSW 23:24:59 24° SSW 23:25:27 24° S
Cosmos 1707 3.3 23:25:34 43° E 23:25:34 43° E 23:29:15 10° NNE
Cosmos 1953 3.5 23:23:42 10° NNW 23:27:23 36° W 23:28:40 28° SW
Lacrosse 5 rocket 4.3 23:28:51 10° NNW 23:31:02 14° NNE 23:33:16 10° NE
NOSS 3-2 (C) 3.7 23:30:29 39° SSE 23:32:11 48° ESE 23:38:28 10° NE
Geosat 4.1 23:28:00 10° NNE 23:33:03 78° WNW 23:36:05 24° SW
Cosmos 1741 Rocket 4.3 23:30:05 22° SW 23:33:33 67° WNW 23:38:52 10° NNE
Cosmos 2221 2.8 23:33:11 10° N 23:37:23 49° ENE 23:37:48 47° E
Terra 2.3 23:36:48 36° SSW 23:38:19 51° W 23:42:58 10° NNW
Spot 4 4.1 23:38:04 43° SSW 23:39:25 62° WSW 23:44:11 10° NNW
Cosmos 1092 Rocket 4.0 23:36:22 32° SSW 23:39:31 83° W 23:45:49 10° N
Cosmos 1766 Rocket 4.4 23:43:26 35° E 23:43:26 35° E 23:47:31 10° NNE
Cosmos 1733 3.0 23:43:02 10° N 23:46:55 89° E 23:46:56 89° SE
Cosmos 1867 4.1 23:49:21 40° ESE 23:49:21 40° ESE 23:54:23 10° NE
Meteor 1-24 Rocket 4.0 23:52:39 46° SE 23:54:09 59° E 23:59:55 10° NNE
